Year,Month,Day,Hour,Minute,Value (Times are PST for insolation in W/m^2)
2011,10,01,00,00,0.00
2011,10,01,00,01,0.00
2011,10,01,00,02,0.00
2011,10,01,00,03,0.00
2011,10,01,00,04,0.00
2011,10,01,00,05,0.00
2011,10,01,00,06,0.00
2011,10,01,00,07,0.00
2011,10,01,00,08,0.00
2011,10,01,00,09,0.00
2011,10,01,00,10,0.00
2011,10,01,00,11,0.00
2011,10,01,00,12,0.00
2011,10,01,00,13,0.00
2011,10,01,00,14,0.00
2011,10,01,00,15,0.00
2011,10,01,00,16,0.00
2011,10,01,00,17,0.00
2011,10,01,00,18,0.00
2011,10,01,00,19,0.00
2011,10,01,00,20,0.00
2011,10,01,00,21,0.00
2011,10,01,00,22,0.00
2011,10,01,00,23,0.00
2011,10,01,00,24,0.00
2011,10,01,00,25,0.00
2011,10,01,00,26,0.00
2011,10,01,00,27,0.00
2011,10,01,00,28,0.00
2011,10,01,00,29,0.00
2011,10,01,00,30,0.00
2011,10,01,00,31,0.00
2011,10,01,00,32,0.00
2011,10,01,00,33,0.00
2011,10,01,00,34,0.00
2011,10,01,00,35,0.00
2011,10,01,00,36,0.00
2011,10,01,00,37,0.00
2011,10,01,00,38,0.00
2011,10,01,00,39,0.00
2011,10,01,00,40,0.00
2011,10,01,00,41,0.00
2011,10,01,00,42,0.00
2011,10,01,00,43,0.00
2011,10,01,00,44,0.00
2011,10,01,00,45,0.00
2011,10,01,00,46,0.00
2011,10,01,00,47,0.00
2011,10,01,00,48,0.00
2011,10,01,00,49,0.00
2011,10,01,00,50,0.00
2011,10,01,00,51,0.00
2011,10,01,00,52,0.00
2011,10,01,00,53,0.00
2011,10,01,00,54,0.00
2011,10,01,00,55,0.00
2011,10,01,00,56,0.00
2011,10,01,00,57,0.00
2011,10,01,00,58,0.00
2011,10,01,00,59,0.00
2011,10,01,01,00,0.00
2011,10,01,01,01,0.00
2011,10,01,01,02,0.00
2011,10,01,01,03,0.00
2011,10,01,01,04,0.00
2011,10,01,01,05,0.00
2011,10,01,01,06,0.00
2011,10,01,01,07,0.00
2011,10,01,01,08,0.00
2011,10,01,01,09,0.00
2011,10,01,01,10,0.00
2011,10,01,01,11,0.00
2011,10,01,01,12,0.00
2011,10,01,01,13,0.00
2011,10,01,01,14,0.00
2011,10,01,01,15,0.00
2011,10,01,01,16,0.00
2011,10,01,01,17,0.00
2011,10,01,01,18,0.00
2011,10,01,01,19,0.00
2011,10,01,01,20,0.00
2011,10,01,01,21,0.00
2011,10,01,01,22,0.00
2011,10,01,01,23,0.00
2011,10,01,01,24,0.00
2011,10,01,01,25,0.00
2011,10,01,01,26,0.00
2011,10,01,01,27,0.00
2011,10,01,01,28,0.00
2011,10,01,01,29,0.00
2011,10,01,01,30,0.00
2011,10,01,01,31,0.00
2011,10,01,01,32,0.00
2011,10,01,01,33,0.00
2011,10,01,01,34,0.00
2011,10,01,01,35,0.00
2011,10,01,01,36,0.00
2011,10,01,01,37,0.00
2011,10,01,01,38,0.00
2011,10,01,01,39,0.00
2011,10,01,01,40,0.00
2011,10,01,01,41,0.00
2011,10,01,01,42,0.00
2011,10,01,01,43,0.00
2011,10,01,01,44,0.00
2011,10,01,01,45,0.00
2011,10,01,01,46,0.00
2011,10,01,01,47,0.00
2011,10,01,01,48,0.00
2011,10,01,01,49,0.00
2011,10,01,01,50,0.00
2011,10,01,01,51,0.00
2011,10,01,01,52,0.00
2011,10,01,01,53,0.00
2011,10,01,01,54,0.00
2011,10,01,01,55,0.00
2011,10,01,01,56,0.00
2011,10,01,01,57,0.00
2011,10,01,01,58,0.00
2011,10,01,01,59,0.00
2011,10,01,02,00,0.00
2011,10,01,02,01,0.00
2011,10,01,02,02,0.00
2011,10,01,02,03,0.00
2011,10,01,02,04,0.00
2011,10,01,02,05,0.00
2011,10,01,02,06,0.00
2011,10,01,02,07,0.00
2011,10,01,02,08,0.00
2011,10,01,02,09,0.00
2011,10,01,02,10,0.00
2011,10,01,02,11,0.00
2011,10,01,02,12,0.00
2011,10,01,02,13,0.00
2011,10,01,02,14,0.00
2011,10,01,02,15,0.00
2011,10,01,02,16,0.00
2011,10,01,02,17,0.00
2011,10,01,02,18,0.00
2011,10,01,02,19,0.00
2011,10,01,02,20,0.00
2011,10,01,02,21,0.00
2011,10,01,02,22,0.00
2011,10,01,02,23,0.00
2011,10,01,02,24,0.00
2011,10,01,02,25,0.00
2011,10,01,02,26,0.00
2011,10,01,02,27,0.00
2011,10,01,02,28,0.00
2011,10,01,02,29,0.00
2011,10,01,02,30,0.00
2011,10,01,02,31,0.00
2011,10,01,02,32,0.00
2011,10,01,02,33,0.00
2011,10,01,02,34,0.00
2011,10,01,02,35,0.00
2011,10,01,02,36,0.00
2011,10,01,02,37,0.00
2011,10,01,02,38,0.00
2011,10,01,02,39,0.00
2011,10,01,02,40,0.00
2011,10,01,02,41,0.00
2011,10,01,02,42,0.00
2011,10,01,02,43,0.00
2011,10,01,02,44,0.00
2011,10,01,02,45,0.00
2011,10,01,02,46,0.00
2011,10,01,02,47,0.00
2011,10,01,02,48,0.00
2011,10,01,02,49,0.00
2011,10,01,02,50,0.00
2011,10,01,02,51,0.00
2011,10,01,02,52,0.00
2011,10,01,02,53,0.00
2011,10,01,02,54,0.00
2011,10,01,02,55,0.00
2011,10,01,02,56,0.00
2011,10,01,02,57,0.00
2011,10,01,02,58,0.00
2011,10,01,02,59,0.00
2011,10,01,03,00,0.00
2011,10,01,03,01,0.00
2011,10,01,03,02,0.00
2011,10,01,03,03,0.00
2011,10,01,03,04,0.00
2011,10,01,03,05,0.00
2011,10,01,03,06,0.00
2011,10,01,03,07,0.00
2011,10,01,03,08,0.00
2011,10,01,03,09,0.00
2011,10,01,03,10,0.00
2011,10,01,03,11,0.00
2011,10,01,03,12,0.00
2011,10,01,03,13,0.00
2011,10,01,03,14,0.00
2011,10,01,03,15,0.00
2011,10,01,03,16,0.00
2011,10,01,03,17,0.00
2011,10,01,03,18,0.00
2011,10,01,03,19,0.00
2011,10,01,03,20,0.00
2011,10,01,03,21,0.00
2011,10,01,03,22,0.00
2011,10,01,03,23,0.00
2011,10,01,03,24,0.00
2011,10,01,03,25,0.00
2011,10,01,03,26,0.00
2011,10,01,03,27,0.00
2011,10,01,03,28,0.00
2011,10,01,03,29,0.00
2011,10,01,03,30,0.00
2011,10,01,03,31,0.00
2011,10,01,03,32,0.00
2011,10,01,03,33,0.00
2011,10,01,03,34,0.00
2011,10,01,03,35,0.00
2011,10,01,03,36,0.00
2011,10,01,03,37,0.00
2011,10,01,03,38,0.00
2011,10,01,03,39,0.00
2011,10,01,03,40,0.00
2011,10,01,03,41,0.00
2011,10,01,03,42,0.00
2011,10,01,03,43,0.00
2011,10,01,03,44,0.00
2011,10,01,03,45,0.00
2011,10,01,03,46,0.00
2011,10,01,03,47,0.00
2011,10,01,03,48,0.00
2011,10,01,03,49,0.00
2011,10,01,03,50,0.00
2011,10,01,03,51,0.00
2011,10,01,03,52,0.00
2011,10,01,03,53,0.00
2011,10,01,03,54,0.00
2011,10,01,03,55,0.00
2011,10,01,03,56,0.00
2011,10,01,03,57,0.00
2011,10,01,03,58,0.00
2011,10,01,03,59,0.00
2011,10,01,04,00,0.00
2011,10,01,04,01,0.00
2011,10,01,04,02,0.00
2011,10,01,04,03,0.00
2011,10,01,04,04,0.00
2011,10,01,04,05,0.00
2011,10,01,04,06,0.00
2011,10,01,04,07,0.00
2011,10,01,04,08,0.00
2011,10,01,04,09,0.00
2011,10,01,04,10,0.00
2011,10,01,04,11,0.00
2011,10,01,04,12,0.00
2011,10,01,04,13,0.00
2011,10,01,04,14,0.00
2011,10,01,04,15,0.00
2011,10,01,04,16,0.00
2011,10,01,04,17,0.00
2011,10,01,04,18,0.00
2011,10,01,04,19,0.00
2011,10,01,04,20,0.00
2011,10,01,04,21,0.00
2011,10,01,04,22,0.00
2011,10,01,04,23,0.00
2011,10,01,04,24,0.00
2011,10,01,04,25,0.00
2011,10,01,04,26,0.00
2011,10,01,04,27,0.00
2011,10,01,04,28,0.00
2011,10,01,04,29,0.00
2011,10,01,04,30,0.00
2011,10,01,04,31,0.00
2011,10,01,04,32,0.00
2011,10,01,04,33,0.00
2011,10,01,04,34,0.00
2011,10,01,04,35,0.00
2011,10,01,04,36,0.00
2011,10,01,04,37,0.00
2011,10,01,04,38,0.00
2011,10,01,04,39,0.00
2011,10,01,04,40,0.00
2011,10,01,04,41,0.00
2011,10,01,04,42,0.00
2011,10,01,04,43,0.00
2011,10,01,04,44,0.00
2011,10,01,04,45,0.00
2011,10,01,04,46,0.00
2011,10,01,04,47,0.00
2011,10,01,04,48,0.00
2011,10,01,04,49,0.00
2011,10,01,04,50,0.00
2011,10,01,04,51,0.00
2011,10,01,04,52,0.00
2011,10,01,04,53,0.00
2011,10,01,04,54,0.00
2011,10,01,04,55,0.00
2011,10,01,04,56,0.00
2011,10,01,04,57,0.00
2011,10,01,04,58,0.00
2011,10,01,04,59,0.00
2011,10,01,05,00,0.00
2011,10,01,05,01,0.00
2011,10,01,05,02,0.00
2011,10,01,05,03,0.00
2011,10,01,05,04,0.00
2011,10,01,05,05,0.00
2011,10,01,05,06,0.00
2011,10,01,05,07,0.00
2011,10,01,05,08,0.00
2011,10,01,05,09,0.00
2011,10,01,05,10,0.00
2011,10,01,05,11,0.00
2011,10,01,05,12,0.00
2011,10,01,05,13,0.00
2011,10,01,05,14,0.00
2011,10,01,05,15,0.00
2011,10,01,05,16,0.00
2011,10,01,05,17,0.00
2011,10,01,05,18,0.00
2011,10,01,05,19,0.00
2011,10,01,05,20,0.00
2011,10,01,05,21,0.00
2011,10,01,05,22,0.00
2011,10,01,05,23,0.00
2011,10,01,05,24,0.00
2011,10,01,05,25,0.00
2011,10,01,05,26,0.00
2011,10,01,05,27,0.00
2011,10,01,05,28,0.00
2011,10,01,05,29,0.00
2011,10,01,05,30,0.00
2011,10,01,05,31,0.00
2011,10,01,05,32,0.00
2011,10,01,05,33,0.00
2011,10,01,05,34,0.00
2011,10,01,05,35,0.00
2011,10,01,05,36,0.00
2011,10,01,05,37,0.00
2011,10,01,05,38,0.00
2011,10,01,05,39,0.00
2011,10,01,05,40,0.00
2011,10,01,05,41,0.00
2011,10,01,05,42,0.00
2011,10,01,05,43,0.00
2011,10,01,05,44,0.00
2011,10,01,05,45,0.00
2011,10,01,05,46,0.00
2011,10,01,05,47,0.00
2011,10,01,05,48,0.00
2011,10,01,05,49,0.00
2011,10,01,05,50,0.00
2011,10,01,05,51,0.00
2011,10,01,05,52,0.00
2011,10,01,05,53,0.00
2011,10,01,05,54,0.00
2011,10,01,05,55,0.00
2011,10,01,05,56,0.00
2011,10,01,05,57,0.00
2011,10,01,05,58,0.00
2011,10,01,05,59,0.00
2011,10,01,06,00,0.00
2011,10,01,06,01,0.00
2011,10,01,06,02,0.00
2011,10,01,06,03,0.00
2011,10,01,06,04,0.00
2011,10,01,06,05,0.00
2011,10,01,06,06,0.00
2011,10,01,06,07,0.00
2011,10,01,06,08,0.00
2011,10,01,06,09,0.00
2011,10,01,06,10,0.00
2011,10,01,06,11,0.00
2011,10,01,06,12,0.00
2011,10,01,06,13,0.00
2011,10,01,06,14,0.00
2011,10,01,06,15,0.00
2011,10,01,06,16,0.00
2011,10,01,06,17,0.00
2011,10,01,06,18,0.00
2011,10,01,06,19,0.00
2011,10,01,06,20,0.00
2011,10,01,06,21,0.00
2011,10,01,06,22,0.00
2011,10,01,06,23,0.00
2011,10,01,06,24,0.00
2011,10,01,06,25,0.00
2011,10,01,06,26,0.00
2011,10,01,06,27,0.00
2011,10,01,06,28,0.00
2011,10,01,06,29,0.00
2011,10,01,06,30,0.00
2011,10,01,06,31,0.00
2011,10,01,06,32,0.00
2011,10,01,06,33,0.00
2011,10,01,06,34,0.00
2011,10,01,06,35,0.00
2011,10,01,06,36,0.00
2011,10,01,06,37,0.00
2011,10,01,06,38,0.00
2011,10,01,06,39,0.00
2011,10,01,06,40,0.00
2011,10,01,06,41,0.00
2011,10,01,06,42,0.00
2011,10,01,06,43,0.00
2011,10,01,06,44,0.00
2011,10,01,06,45,0.00
2011,10,01,06,46,0.00
2011,10,01,06,47,0.00
2011,10,01,06,48,0.00
2011,10,01,06,49,0.00
2011,10,01,06,50,0.00
2011,10,01,06,51,0.00
2011,10,01,06,52,0.00
2011,10,01,06,53,0.00
2011,10,01,06,54,0.00
2011,10,01,06,55,0.00
2011,10,01,06,56,0.00
2011,10,01,06,57,0.00
2011,10,01,06,58,0.00
2011,10,01,06,59,0.00
2011,10,01,07,00,0.00
2011,10,01,07,01,0.00
2011,10,01,07,02,0.00
2011,10,01,07,03,0.00
2011,10,01,07,04,0.00
2011,10,01,07,05,0.00
2011,10,01,07,06,0.00
2011,10,01,07,07,0.00
2011,10,01,07,08,0.00
2011,10,01,07,09,0.00
2011,10,01,07,10,0.00
2011,10,01,07,11,0.00
2011,10,01,07,12,0.00
2011,10,01,07,13,0.00
2011,10,01,07,14,0.00
2011,10,01,07,15,0.00
2011,10,01,07,16,0.00
2011,10,01,07,17,0.00
2011,10,01,07,18,0.00
2011,10,01,07,19,0.00
2011,10,01,07,20,0.00
2011,10,01,07,21,0.00
2011,10,01,07,22,0.00
2011,10,01,07,23,0.00
2011,10,01,07,24,0.00
2011,10,01,07,25,0.00
2011,10,01,07,26,0.00
2011,10,01,07,27,0.50
2011,10,01,07,28,5.00
2011,10,01,07,29,5.00
2011,10,01,07,30,5.00
2011,10,01,07,31,5.00
2011,10,01,07,32,5.00
2011,10,01,07,33,5.00
2011,10,01,07,34,5.80
2011,10,01,07,35,6.10
2011,10,01,07,36,5.00
2011,10,01,07,37,5.00
2011,10,01,07,38,5.00
2011,10,01,07,39,5.00
2011,10,01,07,40,5.00
2011,10,01,07,41,5.00
2011,10,01,07,42,5.00
2011,10,01,07,43,5.00
2011,10,01,07,44,6.60
2011,10,01,07,45,7.00
2011,10,01,07,46,7.00
2011,10,01,07,47,8.90
2011,10,01,07,48,9.10
2011,10,01,07,49,11.00
2011,10,01,07,50,11.00
2011,10,01,07,51,11.00
2011,10,01,07,52,10.60
2011,10,01,07,53,9.00
2011,10,01,07,54,9.00
2011,10,01,07,55,9.00
2011,10,01,07,56,9.00
2011,10,01,07,57,9.80
2011,10,01,07,58,11.00
2011,10,01,07,59,11.00
2011,10,01,08,00,11.50
2011,10,01,08,01,12.00
2011,10,01,08,02,13.30
2011,10,01,08,03,14.00
2011,10,01,08,04,14.00
2011,10,01,08,05,14.00
2011,10,01,08,06,15.60
2011,10,01,08,07,16.00
2011,10,01,08,08,17.80
2011,10,01,08,09,18.90
2011,10,01,08,10,19.00
2011,10,01,08,11,20.90
2011,10,01,08,12,21.00
2011,10,01,08,13,21.00
2011,10,01,08,14,21.00
2011,10,01,08,15,21.00
2011,10,01,08,16,21.00
2011,10,01,08,17,21.00
2011,10,01,08,18,21.00
2011,10,01,08,19,21.00
2011,10,01,08,20,21.00
2011,10,01,08,21,21.00
2011,10,01,08,22,21.00
2011,10,01,08,23,21.00
2011,10,01,08,24,22.20
2011,10,01,08,25,23.00
2011,10,01,08,26,23.00
2011,10,01,08,27,24.40
2011,10,01,08,28,25.00
2011,10,01,08,29,25.00
2011,10,01,08,30,25.00
2011,10,01,08,31,23.40
2011,10,01,08,32,23.00
2011,10,01,08,33,23.00
2011,10,01,08,34,25.00
2011,10,01,08,35,25.10
2011,10,01,08,36,26.20
2011,10,01,08,37,28.30
2011,10,01,08,38,30.00
2011,10,01,08,39,30.40
2011,10,01,08,40,32.00
2011,10,01,08,41,32.30
2011,10,01,08,42,33.70
2011,10,01,08,43,35.00
2011,10,01,08,44,35.90
2011,10,01,08,45,38.00
2011,10,01,08,46,39.00
2011,10,01,08,47,40.70
2011,10,01,08,48,44.40
2011,10,01,08,49,48.00
2011,10,01,08,50,51.70
2011,10,01,08,51,53.70
2011,10,01,08,52,54.00
2011,10,01,08,53,55.70
2011,10,01,08,54,56.00
2011,10,01,08,55,56.00
2011,10,01,08,56,57.80
2011,10,01,08,57,60.00
2011,10,01,08,58,60.20
2011,10,01,08,59,62.00
2011,10,01,09,00,62.20
2011,10,01,09,01,63.00
2011,10,01,09,02,63.40
2011,10,01,09,03,66.20
2011,10,01,09,04,69.30
2011,10,01,09,05,71.50
2011,10,01,09,06,74.80
2011,10,01,09,07,76.40
2011,10,01,09,08,77.90
2011,10,01,09,09,81.10
2011,10,01,09,10,83.60
2011,10,01,09,11,85.30
2011,10,01,09,12,87.40
2011,10,01,09,13,88.00
2011,10,01,09,14,89.40
2011,10,01,09,15,90.80
2011,10,01,09,16,92.70
2011,10,01,09,17,94.80
2011,10,01,09,18,97.70
2011,10,01,09,19,99.90
2011,10,01,09,20,102.00
2011,10,01,09,21,104.10
2011,10,01,09,22,105.00
2011,10,01,09,23,105.30
2011,10,01,09,24,107.40
2011,10,01,09,25,109.50
2011,10,01,09,26,111.80
2011,10,01,09,27,115.30
2011,10,01,09,28,119.10
2011,10,01,09,29,122.70
2011,10,01,09,30,125.00
2011,10,01,09,31,125.00
2011,10,01,09,32,125.00
2011,10,01,09,33,125.00
2011,10,01,09,34,125.00
2011,10,01,09,35,125.00
2011,10,01,09,36,133.40
2011,10,01,09,37,137.00
2011,10,01,09,38,137.00
2011,10,01,09,39,137.00
2011,10,01,09,40,137.00
2011,10,01,09,41,140.80
2011,10,01,09,42,143.90
2011,10,01,09,43,148.10
2011,10,01,09,44,151.20
2011,10,01,09,45,155.70
2011,10,01,09,46,164.20
2011,10,01,09,47,177.00
2011,10,01,09,48,185.20
2011,10,01,09,49,208.10
2011,10,01,09,50,228.50
2011,10,01,09,51,241.90
2011,10,01,09,52,257.80
2011,10,01,09,53,266.70
2011,10,01,09,54,264.00
2011,10,01,09,55,252.00
2011,10,01,09,56,246.00
2011,10,01,09,57,252.90
2011,10,01,09,58,249.90
2011,10,01,09,59,229.80
2011,10,01,10,00,226.70
2011,10,01,10,01,229.00
2011,10,01,10,02,233.20
2011,10,01,10,03,230.60
2011,10,01,10,04,229.10
2011,10,01,10,05,223.60
2011,10,01,10,06,209.10
2011,10,01,10,07,210.70
2011,10,01,10,08,205.60
2011,10,01,10,09,201.60
2011,10,01,10,10,197.60
2011,10,01,10,11,191.60
2011,10,01,10,12,190.00
2011,10,01,10,13,190.90
2011,10,01,10,14,191.90
2011,10,01,10,15,188.40
2011,10,01,10,16,187.80
2011,10,01,10,17,188.20
2011,10,01,10,18,185.50
2011,10,01,10,19,185.00
2011,10,01,10,20,186.90
2011,10,01,10,21,188.00
2011,10,01,10,22,188.00
2011,10,01,10,23,188.00
2011,10,01,10,24,182.80
2011,10,01,10,25,176.80
2011,10,01,10,26,176.00
2011,10,01,10,27,180.50
2011,10,01,10,28,182.90
2011,10,01,10,29,179.30
2011,10,01,10,30,181.00
2011,10,01,10,31,181.00
2011,10,01,10,32,181.60
2011,10,01,10,33,185.20
2011,10,01,10,34,187.10
2011,10,01,10,35,192.60
2011,10,01,10,36,204.20
2011,10,01,10,37,218.80
2011,10,01,10,38,230.80
2011,10,01,10,39,233.50
2011,10,01,10,40,224.30
2011,10,01,10,41,227.50
2011,10,01,10,42,231.90
2011,10,01,10,43,238.80
2011,10,01,10,44,242.00
2011,10,01,10,45,229.00
2011,10,01,10,46,222.00
2011,10,01,10,47,224.20
2011,10,01,10,48,229.20
2011,10,01,10,49,227.30
2011,10,01,10,50,223.40
2011,10,01,10,51,218.30
2011,10,01,10,52,219.40
2011,10,01,10,53,208.60
2011,10,01,10,54,201.10
2011,10,01,10,55,191.70
2011,10,01,10,56,183.60
2011,10,01,10,57,173.80
2011,10,01,10,58,165.20
2011,10,01,10,59,158.70
2011,10,01,11,00,156.70
2011,10,01,11,01,160.80
2011,10,01,11,02,171.70
2011,10,01,11,03,192.70
2011,10,01,11,04,207.00
2011,10,01,11,05,207.00
2011,10,01,11,06,209.50
2011,10,01,11,07,214.00
2011,10,01,11,08,214.00
2011,10,01,11,09,208.50
2011,10,01,11,10,200.70
2011,10,01,11,11,189.70
2011,10,01,11,12,179.10
2011,10,01,11,13,166.90
2011,10,01,11,14,151.70
2011,10,01,11,15,135.00
2011,10,01,11,16,120.60
2011,10,01,11,17,112.60
2011,10,01,11,18,109.30
2011,10,01,11,19,112.10
2011,10,01,11,20,118.30
2011,10,01,11,21,130.00
2011,10,01,11,22,139.80
2011,10,01,11,23,148.50
2011,10,01,11,24,155.80
2011,10,01,11,25,160.90
2011,10,01,11,26,163.40
2011,10,01,11,27,166.10
2011,10,01,11,28,169.30
2011,10,01,11,29,172.90
2011,10,01,11,30,176.80
2011,10,01,11,31,180.10
2011,10,01,11,32,182.40
2011,10,01,11,33,185.30
2011,10,01,11,34,187.70
2011,10,01,11,35,191.60
2011,10,01,11,36,192.90
2011,10,01,11,37,194.90
2011,10,01,11,38,197.00
2011,10,01,11,39,194.80
2011,10,01,11,40,189.30
2011,10,01,11,41,182.20
2011,10,01,11,42,177.40
2011,10,01,11,43,173.60
2011,10,01,11,44,172.60
2011,10,01,11,45,174.00
2011,10,01,11,46,174.00
2011,10,01,11,47,174.80
2011,10,01,11,48,177.30
2011,10,01,11,49,183.50
2011,10,01,11,50,190.10
2011,10,01,11,51,192.60
2011,10,01,11,52,193.00
2011,10,01,11,53,194.30
2011,10,01,11,54,197.70
2011,10,01,11,55,201.10
2011,10,01,11,56,200.40
2011,10,01,11,57,189.80
2011,10,01,11,58,172.80
2011,10,01,11,59,156.80
2011,10,01,12,00,153.10
2011,10,01,12,01,155.10
2011,10,01,12,02,160.50
2011,10,01,12,03,170.20
2011,10,01,12,04,182.70
2011,10,01,12,05,193.90
2011,10,01,12,06,199.60
2011,10,01,12,07,203.50
2011,10,01,12,08,210.50
2011,10,01,12,09,219.80
2011,10,01,12,10,221.00
2011,10,01,12,11,214.40
2011,10,01,12,12,210.90
2011,10,01,12,13,223.00
2011,10,01,12,14,242.40
2011,10,01,12,15,249.10
2011,10,01,12,16,233.60
2011,10,01,12,17,209.50
2011,10,01,12,18,186.50
2011,10,01,12,19,166.60
2011,10,01,12,20,154.60
2011,10,01,12,21,151.20
2011,10,01,12,22,146.30
2011,10,01,12,23,139.40
2011,10,01,12,24,134.00
2011,10,01,12,25,134.00
2011,10,01,12,26,133.80
2011,10,01,12,27,130.90
2011,10,01,12,28,122.70
2011,10,01,12,29,111.80
2011,10,01,12,30,102.90
2011,10,01,12,31,96.90
2011,10,01,12,32,95.70
2011,10,01,12,33,96.20
2011,10,01,12,34,92.80
2011,10,01,12,35,87.20
2011,10,01,12,36,83.50
2011,10,01,12,37,83.60
2011,10,01,12,38,86.60
2011,10,01,12,39,91.40
2011,10,01,12,40,96.20
2011,10,01,12,41,98.00
2011,10,01,12,42,95.60
2011,10,01,12,43,93.40
2011,10,01,12,44,93.00
2011,10,01,12,45,96.80
2011,10,01,12,46,99.80
2011,10,01,12,47,104.00
2011,10,01,12,48,109.20
2011,10,01,12,49,113.30
2011,10,01,12,50,116.30
2011,10,01,12,51,118.60
2011,10,01,12,52,122.30
2011,10,01,12,53,128.30
2011,10,01,12,54,134.30
2011,10,01,12,55,142.10
2011,10,01,12,56,150.00
2011,10,01,12,57,152.10
2011,10,01,12,58,149.60
2011,10,01,12,59,148.00
2011,10,01,13,00,152.20
2011,10,01,13,01,161.30
2011,10,01,13,02,173.00
2011,10,01,13,03,183.20
2011,10,01,13,04,191.00
2011,10,01,13,05,190.60
2011,10,01,13,06,186.00
2011,10,01,13,07,175.60
2011,10,01,13,08,160.70
2011,10,01,13,09,149.50
2011,10,01,13,10,148.00
2011,10,01,13,11,151.70
2011,10,01,13,12,158.90
2011,10,01,13,13,167.60
2011,10,01,13,14,171.60
2011,10,01,13,15,174.40
2011,10,01,13,16,177.40
2011,10,01,13,17,184.80
2011,10,01,13,18,200.00
2011,10,01,13,19,218.60
2011,10,01,13,20,229.20
2011,10,01,13,21,231.10
2011,10,01,13,22,225.30
2011,10,01,13,23,215.30
2011,10,01,13,24,199.60
2011,10,01,13,25,180.30
2011,10,01,13,26,161.40
2011,10,01,13,27,153.90
2011,10,01,13,28,161.00
2011,10,01,13,29,177.40
2011,10,01,13,30,194.60
2011,10,01,13,31,207.80
2011,10,01,13,32,220.40
2011,10,01,13,33,235.20
2011,10,01,13,34,246.20
2011,10,01,13,35,249.30
2011,10,01,13,36,241.90
2011,10,01,13,37,233.50
2011,10,01,13,38,215.40
2011,10,01,13,39,190.00
2011,10,01,13,40,162.70
2011,10,01,13,41,143.70
2011,10,01,13,42,131.00
2011,10,01,13,43,122.80
2011,10,01,13,44,120.00
2011,10,01,13,45,121.70
2011,10,01,13,46,125.30
2011,10,01,13,47,127.00
2011,10,01,13,48,127.00
2011,10,01,13,49,127.00
2011,10,01,13,50,127.70
2011,10,01,13,51,124.10
2011,10,01,13,52,117.10
2011,10,01,13,53,108.70
2011,10,01,13,54,98.50
2011,10,01,13,55,93.20
2011,10,01,13,56,90.00
2011,10,01,13,57,87.90
2011,10,01,13,58,86.00
2011,10,01,13,59,85.70
2011,10,01,14,00,83.80
2011,10,01,14,01,82.20
2011,10,01,14,02,78.50
2011,10,01,14,03,76.70
2011,10,01,14,04,75.30
2011,10,01,14,05,73.20
2011,10,01,14,06,70.70
2011,10,01,14,07,66.20
2011,10,01,14,08,61.50
2011,10,01,14,09,58.80
2011,10,01,14,10,58.00
2011,10,01,14,11,59.30
2011,10,01,14,12,61.30
2011,10,01,14,13,62.00
2011,10,01,14,14,62.80
2011,10,01,14,15,64.60
2011,10,01,14,16,68.60
2011,10,01,14,17,69.90
2011,10,01,14,18,70.00
2011,10,01,14,19,70.00
2011,10,01,14,20,70.00
2011,10,01,14,21,69.00
2011,10,01,14,22,69.40
2011,10,01,14,23,72.80
2011,10,01,14,24,77.10
2011,10,01,14,25,82.80
2011,10,01,14,26,90.90
2011,10,01,14,27,103.50
2011,10,01,14,28,118.60
2011,10,01,14,29,131.80
2011,10,01,14,30,143.70
2011,10,01,14,31,153.90
2011,10,01,14,32,164.60
2011,10,01,14,33,174.70
2011,10,01,14,34,182.40
2011,10,01,14,35,185.60
2011,10,01,14,36,181.00
2011,10,01,14,37,166.20
2011,10,01,14,38,148.60
2011,10,01,14,39,135.30
2011,10,01,14,40,128.60
2011,10,01,14,41,129.90
2011,10,01,14,42,137.40
2011,10,01,14,43,146.50
2011,10,01,14,44,155.80
2011,10,01,14,45,164.30
2011,10,01,14,46,172.50
2011,10,01,14,47,185.30
2011,10,01,14,48,204.80
2011,10,01,14,49,247.30
2011,10,01,14,50,304.50
2011,10,01,14,51,309.40
2011,10,01,14,52,362.50
2011,10,01,14,53,364.00
2011,10,01,14,54,332.80
2011,10,01,14,55,329.40
2011,10,01,14,56,333.40
2011,10,01,14,57,316.00
2011,10,01,14,58,303.30
2011,10,01,14,59,351.70
2011,10,01,15,00,314.60
2011,10,01,15,01,355.40
2011,10,01,15,02,336.40
2011,10,01,15,03,311.10
2011,10,01,15,04,279.30
2011,10,01,15,05,260.30
2011,10,01,15,06,251.20
2011,10,01,15,07,253.70
2011,10,01,15,08,242.40
2011,10,01,15,09,236.40
2011,10,01,15,10,234.80
2011,10,01,15,11,241.20
2011,10,01,15,12,271.00
2011,10,01,15,13,307.20
2011,10,01,15,14,307.20
2011,10,01,15,15,328.70
2011,10,01,15,16,336.00
2011,10,01,15,17,376.20
2011,10,01,15,18,394.60
2011,10,01,15,19,438.60
2011,10,01,15,20,469.10
2011,10,01,15,21,468.00
2011,10,01,15,22,314.70
2011,10,01,15,23,258.40
2011,10,01,15,24,269.30
2011,10,01,15,25,331.10
2011,10,01,15,26,313.70
2011,10,01,15,27,363.20
2011,10,01,15,28,357.00
2011,10,01,15,29,319.00
2011,10,01,15,30,339.90
2011,10,01,15,31,349.00
2011,10,01,15,32,341.40
2011,10,01,15,33,289.50
2011,10,01,15,34,308.20
2011,10,01,15,35,320.50
2011,10,01,15,36,272.30
2011,10,01,15,37,241.30
2011,10,01,15,38,238.20
2011,10,01,15,39,236.50
2011,10,01,15,40,215.50
2011,10,01,15,41,207.20
2011,10,01,15,42,198.40
2011,10,01,15,43,184.80
2011,10,01,15,44,185.00
2011,10,01,15,45,186.00
2011,10,01,15,46,186.00
2011,10,01,15,47,186.00
2011,10,01,15,48,186.00
2011,10,01,15,49,186.00
2011,10,01,15,50,186.00
2011,10,01,15,51,227.80
2011,10,01,15,52,224.30
2011,10,01,15,53,210.60
2011,10,01,15,54,207.00
2011,10,01,15,55,202.40
2011,10,01,15,56,180.20
2011,10,01,15,57,169.60
2011,10,01,15,58,162.10
2011,10,01,15,59,160.00
2011,10,01,16,00,161.20
2011,10,01,16,01,173.50
2011,10,01,16,02,190.50
2011,10,01,16,03,196.70
2011,10,01,16,04,200.00
2011,10,01,16,05,337.70
2011,10,01,16,06,418.00
2011,10,01,16,07,250.00
2011,10,01,16,08,240.40
2011,10,01,16,09,214.00
2011,10,01,16,10,179.60
2011,10,01,16,11,174.00
2011,10,01,16,12,177.60
2011,10,01,16,13,184.60
2011,10,01,16,14,186.00
2011,10,01,16,15,194.20
2011,10,01,16,16,237.70
2011,10,01,16,17,239.30
2011,10,01,16,18,214.00
2011,10,01,16,19,214.50
2011,10,01,16,20,217.50
2011,10,01,16,21,236.20
2011,10,01,16,22,269.00
2011,10,01,16,23,331.10
2011,10,01,16,24,440.10
2011,10,01,16,25,444.50
2011,10,01,16,26,434.80
2011,10,01,16,27,424.60
2011,10,01,16,28,414.60
2011,10,01,16,29,407.80
2011,10,01,16,30,399.50
2011,10,01,16,31,388.10
2011,10,01,16,32,373.90
2011,10,01,16,33,361.70
2011,10,01,16,34,351.10
2011,10,01,16,35,340.20
2011,10,01,16,36,322.90
2011,10,01,16,37,336.20
2011,10,01,16,38,312.00
2011,10,01,16,39,288.20
2011,10,01,16,40,315.10
2011,10,01,16,41,316.00
2011,10,01,16,42,313.90
2011,10,01,16,43,305.40
2011,10,01,16,44,293.90
2011,10,01,16,45,276.00
2011,10,01,16,46,253.20
2011,10,01,16,47,252.60
2011,10,01,16,48,273.80
2011,10,01,16,49,255.20
2011,10,01,16,50,238.70
2011,10,01,16,51,247.10
2011,10,01,16,52,246.80
2011,10,01,16,53,251.50
2011,10,01,16,54,265.30
2011,10,01,16,55,267.40
2011,10,01,16,56,268.70
2011,10,01,16,57,269.00
2011,10,01,16,58,250.20
2011,10,01,16,59,249.80
2011,10,01,17,00,267.00
2011,10,01,17,01,262.80
2011,10,01,17,02,239.50
2011,10,01,17,03,225.10
2011,10,01,17,04,214.80
2011,10,01,17,05,219.10
2011,10,01,17,06,225.40
2011,10,01,17,07,229.00
2011,10,01,17,08,214.50
2011,10,01,17,09,197.30
2011,10,01,17,10,187.00
2011,10,01,17,11,174.50
2011,10,01,17,12,174.70
2011,10,01,17,13,171.60
2011,10,01,17,14,156.90
2011,10,01,17,15,153.40
2011,10,01,17,16,155.00
2011,10,01,17,17,149.80
2011,10,01,17,18,122.70
2011,10,01,17,19,136.20
2011,10,01,17,20,156.20
2011,10,01,17,21,153.80